Location: Unspecified
(48.2082°N, 0.0000°E)
Time: 14:07:14
(UTC+00:00)

Transit 4A - Pass Details

Date: 26 June 2019
Orbit: 864 x 981 km, 66.8° (Epoch: 25 August)

Event Time Altitude Azimuth Distance (km) Brightness Sun altitude
Rises 13:16:57 0° 321° (NW) 3,694 11.0 61.1°
Reaches altitude 10° 13:20:18 10° 338° (NNW) 2,743 10.3 60.8°
Maximum altitude 13:24:58 21° 25° (NNE) 2,071 9.7 60.3°
Drops below altitude 10° 13:29:35 10° 72° (ENE) 2,712 10.2 59.8°
Sets 13:32:51 0° 88° (E) 3,639 10.8 59.4°
